IMORA EDLP-LSGC

Flight info

Callsign IMORA
Flight time N/A
Altitude 24000
Route GISDI1X GISDI DCT DODEN Y852 EDISA Y173 PABLA/N0295F230 Y163 HERBI Y164 OLBEN N869 LUTIX DCT DEKAM
Aircraft AT46/M-SDFGIRY/S

Departure

Time 2026-05-08 06:53
Airport Paderborn Lippstadt Airport (EDLP)

Arrival

Time N/A
Airport Les Eplatures Airport (LSGC)
Time Latitude Longitude Altitude Speed Heading
2026-05-08 06:05 51.61120 8.61926 702 ft 0 kts 147°
2026-05-08 06:41 51.61121 8.61925 702 ft 1 kts 147°
2026-05-08 06:41 51.61133 8.61912 696 ft 3 kts 147°
2026-05-08 06:41 51.61155 8.61904 701 ft 3 kts 192°
2026-05-08 06:42 51.61171 8.61919 702 ft 2 kts 230°
2026-05-08 06:45 51.61168 8.61910 702 ft 3 kts 243°
2026-05-08 06:45 51.61150 8.61846 696 ft 9 kts 240°
2026-05-08 06:45 51.61112 8.61749 703 ft 11 kts 236°
2026-05-08 06:46 51.61068 8.61643 704 ft 12 kts 237°
2026-05-08 06:46 51.61022 8.61532 703 ft 12 kts 236°
2026-05-08 06:46 51.60976 8.61414 701 ft 13 kts 238°
2026-05-08 06:46 51.60967 8.61274 707 ft 15 kts 282°
2026-05-08 06:47 51.60984 8.61097 703 ft 17 kts 260°
2026-05-08 06:47 51.60931 8.60945 712 ft 15 kts 236°
2026-05-08 06:47 51.60878 8.60814 711 ft 14 kts 237°
2026-05-08 06:47 51.60826 8.60688 714 ft 13 kts 236°
2026-05-08 06:48 51.60776 8.60563 713 ft 13 kts 240°
2026-05-08 06:48 51.60763 8.60422 714 ft 14 kts 294°
2026-05-08 06:48 51.60774 8.60395 717 ft 0 kts 311°
2026-05-08 06:49 51.60775 8.60393 717 ft 3 kts 313°
2026-05-08 06:50 51.60870 8.60368 719 ft 16 kts 28°
2026-05-08 06:50 51.60931 8.60462 716 ft 0 kts 55°
2026-05-08 06:52 51.60959 8.60529 715 ft 36 kts 58°
2026-05-08 06:52 51.61259 8.61262 740 ft 112 kts 55°
2026-05-08 06:53 51.61740 8.62270 1359 ft 112 kts 58°
2026-05-08 06:53 51.62273 8.63320 1636 ft 140 kts 49°
2026-05-08 06:53 51.63180 8.64275 2041 ft 166 kts
2026-05-08 06:53 51.64320 8.64357 2544 ft 170 kts 19°
2026-05-08 06:54 51.65243 8.65449 3193 ft 162 kts 63°
2026-05-08 06:54 51.65517 8.67177 3929 ft 159 kts 89°
2026-05-08 06:54 51.65348 8.68913 4605 ft 161 kts 109°
2026-05-08 06:54 51.64799 8.70527 5185 ft 168 kts 127°
2026-05-08 06:55 51.64155 8.72043 6005 ft 163 kts 112°
2026-05-08 06:55 51.64299 8.73900 6107 ft 200 kts 46°
2026-05-08 06:55 51.65768 8.74125 5805 ft 234 kts 339°
2026-05-08 06:55 51.66949 8.72749 7085 ft 185 kts 312°
2026-05-08 06:56 51.67667 8.71183 7952 ft 176 kts 300°
2026-05-08 06:56 51.68261 8.69281 8102 ft 200 kts 291°
2026-05-08 06:56 51.68388 8.67290 9182 ft 170 kts 247°
2026-05-08 06:56 51.67356 8.66319 8630 ft 221 kts 166°
2026-05-08 06:57 51.66093 8.67737 9055 ft 221 kts 130°
2026-05-08 06:57 51.65613 8.70065 9442 ft 225 kts 87°
2026-05-08 06:57 51.66314 8.72301 9498 ft 231 kts 47°
2026-05-08 06:57 51.66980 8.74415 10357 ft 209 kts 79°
2026-05-08 06:58 51.67024 8.76899 10340 ft 234 kts 97°
2026-05-08 06:58 51.66550 8.79375 10752 ft 225 kts 123°
2026-05-08 06:58 51.65530 8.81120 11460 ft 214 kts 142°
2026-05-08 06:58 51.64282 8.82456 11765 ft 221 kts 152°
2026-05-08 06:59 51.62868 8.83306 12222 ft 216 kts 172°
2026-05-08 06:59 51.61360 8.83252 12488 ft 221 kts 194°
2026-05-08 06:59 51.59826 8.82728 12759 ft 228 kts 192°
2026-05-08 06:59 51.58252 8.82215 12672 ft 239 kts 195°
2026-05-08 07:00 51.56531 8.81478 12492 ft 255 kts 196°
2026-05-08 07:00 51.54789 8.80806 12496 ft 263 kts 191°
2026-05-08 07:00 51.53053 8.80383 13140 ft 237 kts 188°
2026-05-08 07:00 51.51490 8.80071 13899 ft 209 kts 185°
2026-05-08 07:01 51.50128 8.80324 14539 ft 195 kts 169°
2026-05-08 07:01 51.48771 8.80889 14519 ft 212 kts 167°
2026-05-08 07:01 51.47243 8.81479 14313 ft 232 kts 169°
2026-05-08 07:01 51.45571 8.82066 13693 ft 263 kts 171°
2026-05-08 07:02 51.43772 8.82635 13576 ft 263 kts 172°
2026-05-08 07:02 51.42036 8.82879 14073 ft 239 kts 179°
2026-05-08 07:02 51.40434 8.83194 14518 ft 229 kts 169°
2026-05-08 07:02 51.38900 8.83984 14504 ft 235 kts 167°
2026-05-08 07:03 51.37359 8.84351 15053 ft 212 kts 179°
2026-05-08 07:03 51.35951 8.84479 15560 ft 202 kts 179°
2026-05-08 07:03 51.34411 8.84593 15134 ft 239 kts 180°
2026-05-08 07:03 51.32696 8.84640 15087 ft 247 kts 183°
2026-05-08 07:04 51.31118 8.84186 15726 ft 215 kts 203°
2026-05-08 07:04 51.29803 8.83234 16219 ft 204 kts 208°
2026-05-08 07:04 51.28521 8.82326 16467 ft 205 kts 204°
2026-05-08 07:04 51.27043 8.81525 15501 ft 252 kts 199°
2026-05-08 07:05 51.25436 8.80605 15657 ft 243 kts 205°
2026-05-08 07:05 51.24456 8.79826 15616 ft 245 kts 212°